IRIDIUM 18 [-] (24872 NORAD) Tracking and Keplerian Element Data

This shows tracking and keplerian element data for the satellite.

Feedback or suggestion? Click here.




ElementValue
Catalog24872
NameIRIDIUM 18 [-]
Epoch Orbit10646
Epoch Day231.51646522
Epoch Year2018
RAAN195.4595
Inclination86.3501
Eccentricity0.0021968
Argument of Perigee78.4687
Mean Anonmoly281.9091
Mean Motion16.48748149
Decay Rate0.16201721
L11 24872U 97034D 18231.51646522 .16201721 -14869-5 18152-3 0 9996
L22 24872 86.3501 195.4595 0021968 78.4687 281.9091 16.48748149106461



Live tracking and technical data element details for IRIDIUM 18 [-] (NORAD 24872). IRIDIUM 18 [-] can be tracked NOW for your location showing map with azimuth and elevation plus other details from your city location.







IsCatalogInMostPopularTable: catalog: 24872, numindb: 342
Update: records affected: 1



GetName: 24872 IRIDIUM 18 [-]

Hit Count: updated at: Fri, 16 May 2025 11:26:37 GMT